星链-36710(STARLINK-36710)

导读

STARLINK-36710(NORAD编号67971)是美国SpaceX星链计划的低轨卫星,于2024年12月8日发射,采用Starlink V1.0平台,运行在近地轨道,近地点约355公里,远地点约357公里,轨道倾角43度,周期约91.66分钟,旨在为全球提供高速低延迟宽带互联网服务。 2025年12月该卫星出现异常,轨道高度骤降4000米,产生数十块碎片后与地面失联,SpaceX确认其大概率因内部爆炸受损,目前卫星处于翻滚状态,预计会在几周内再入大气层烧毁,相关方正持续监测碎片轨迹。

Basic Information
目录编号:
67971
目录名称:
STARLINK-36710
国际标识:
2026-038L
轨道中心:
EARTH
卫星名称:
星链-36710
卫星全名:
星链-36710(STARLINK-36710)
卫星状态:
在轨 (已飞行191 天)
发射日期:
2026-02-25 UTC
国别 :
美国 (US)
星等 :
--
Orbit Information
数据来源 国际轨道数据 AOE轨道数据
星历时间 2026-09-04T00:00:49+0800
13小时前
查看轨道信息
2026-09-03T08:00:00+0800
1天前
查看轨道信息
半长轴 6843.698km 6843.681km
偏心率 0.0001723 0.0001697
轨道倾角 97.285° 97.284°
近地点辐角 91.493° 95.632°
升交点赤经 255.245° 254.587°
平近点角 268.651° 183.526°
近地点 464.381km 464.382km
远地点 466.741km 466.706km
周期 93.907分钟 93.906分钟
每日圈数 15.334393 15.334449
Detailed Information
固有亮度:
5
最大亮度:
2.5
卫星平台:
Starlink V1.0
覆盖范围:
全球
运营商:
太空探索技术公司
运营商所在国:
美国
制造商(研发单位):
太空探索技术公司
制造商所在国:
美国
使用方式:
暂无
Satellite Introduction
Starlink 计划是 SpaceX 推出的全球卫星互联网项目,通过发射低轨道卫星,为全球尤其是偏远地区提供高速、低延迟的互联网服务。自 2019 年起,Starlink 已部署数千颗卫星,旨在缩小全球数字鸿沟,推动互联网普及。该项目还为军事、航空等行业提供通信支持,带来广泛经济效益。
2D Orbit Map
3D Orbit Map
Orbit Altitude Analysis Chart
Orbit Inclination Analysis Chart
Orbit Comprehensive Analysis Chart
View Comprehensive Chart
Conjunction Data List
Event ID Objects TCA Miss Dist (km) Collision Risk Probability Collision Risk Index (CRI) Action
CDM_260827-195706-797106-883921
2026-08-27T
19:57:22+0000
0.269 km
中距离
1.8016E-4 高风险 0.8
CDM_260904-121106-217806-797121
2026-09-04T
12:11:03+0000
0.804 km
远距离
5.676498E-5 中风险 0.7
CDM_260827-191006-797106-883921
2026-08-27T
19:10:24+0000
0.890 km
远距离
5.959583E-6 低风险 0.51
CDM_260903-162406-489106-797122
OBJECT R (64891)
2026-09-03T
16:24:58+0000
1.676 km
极远距离
2.323085E-6 低风险 0.42
CDM_260827-204406-797106-883921
2026-08-27T
20:44:21+0000
1.194 km
极远距离
2.23518E-6 低风险 0.42
CDM_260905-045605-237006-797121
2026-09-05T
04:56:27+0000
2.823 km
极远距离
1.433862E-6 低风险 0.38
CDM_260904-042004-735706-797121
2026-09-04T
04:20:34+0000
2.768 km
极远距离
1.089865E-6 低风险 0.36
CDM_260904-203406-415406-797121
2026-09-04T
20:34:47+0000
2.622 km
极远距离
9.58984E-7 极低风险 0.35
CDM_260904-212106-415406-797121
2026-09-04T
21:21:46+0000
2.877 km
极远距离
8.444276E-7 极低风险 0.34
CDM_260827-213106-797106-883921
2026-08-27T
21:31:20+0000
1.884 km
极远距离
6.321155E-7 极低风险 0.31